Hovedside
METAR-TAF:

METAR-TAF

Lufthavner :

Corvallis, Oregon, USA

breddegrad: 44-30N, lengdegrad: 123-17W, høyde over havet: 75 m

Gjeldene værobservasjon

Denne rapporten ble laget for 15 minutter siden, klokken 03:56 UTC
Vind 3 kt fra Øst
Temperatur 8°C
Luftfuktighet 93%
Trykk 1021 hPa
Sikt: 16.1 km
Få skyer i en høyde av 1500 ft
Brutte skyer i en høyde av 2900 ft
Overskyet i en høyde av 4600 ft

METAR: KCVO 200356Z AUTO 09003KT 10SM FEW015 BKN029 OVC046 08/07 A3015 RMK AO2 SLP211 T00780072

Tid: 20:11 (04:11 UTC)


TAF: fraværende

Værobservasjoner og værvarsel for over 4000 flyplasser (METAR- og TAF-rapporter).

Tilgjengelige stasjoner er representert av de røde og gule prikkene på kartet.

Hold musepekeren over prikken for å se navnet på stasjonen.

Klikk så for å se værobservasjoner og -varsler.

For å forandre kartet kan du klikke på den grønne knappen med svart kryss for å zoome inn, på den grønne knappen med strek for å zoome ut, eller på de grønne pilene for å se tilstøtende kart.


METAR-TAF: